Hillsboro, TX

6:50 PM CDT on July 20, 2017 (GMT -0500)
Hillsboro

Weather History for KINJ - January, 2013

Change the Weather History Date:

Tuesday, January 29, 2013

  Actual Average (KACT) Record (KACT)
Temperature  
Mean Temperature 66 °F -  
Max Temperature 80 °F 58 °F 86 °F (1911)
Min Temperature 51 °F 37 °F 13 °F (1966)
Growing Degree Days 16 (Base 50)    
Moisture  
Dew Point 56 °F    
Average Humidity 69    
Maximum Humidity 83    
Minimum Humidity 44    
Precipitation  
Precipitation 0.06 in - - ()
Sea Level Pressure  
Sea Level Pressure 29.68 in    
Wind  
Wind Speed 20 mph (South)    
Max Wind Speed 34 mph    
Max Gust Speed 43 mph    
Visibility 10 miles    
Events Rain , Thunderstorm    
Averages and records for this station are not official NWS values.
T = Trace of Precipitation, MM = Missing Value Source: NWS Daily Summary

Daily Weather History Graph

Daily Weather History Graph

Search for Another Location

Airport or City:

Trip Planner

Search our weather history database for the weather conditions in past years. The results will help you decide how hot, cold, wet, or windy it might be!

Date:

Astronomy

Jan. 29, 2013 Rise Set
Actual Time 7:23 AM CST 5:59 PM CST
Civil Twilight 6:58 AM CST 6:25 PM CST
Nautical Twilight 6:28 AM CST 6:54 PM CST
Astronomical Twilight 5:59 AM CST 7:23 PM CST
Moon 8:43 PM CST (1/29) 8:33 AM CST (1/29)
Length of Visible Light 11h 27m
Length of Day
10h 36m
Waning Gibbous, 93% of the Moon is Illuminated
Jan 29
Waning Gibbous
Feb 3
Last Quarter
Feb 10
New
Feb 17
First Quarter
Feb 25
Full

Hourly Weather History & Observations

Time (CST) Temp. Heat Index Dew Point Humidity Pressure Visibility Wind Dir Wind Speed Gust Speed Precip Events Conditions
12:15 AM 69.8 °F - 62.6 °F 78% 29.88 in 10.0 mi SSE 15.0 mph 24.2 mph N/A   Overcast
12:35 AM 69.8 °F - 62.6 °F 78% 29.88 in 10.0 mi SSE 13.8 mph - N/A   Overcast
12:55 AM 69.8 °F - 62.6 °F 78% 29.87 in 10.0 mi SSE 13.8 mph - N/A   Overcast
1:15 AM 68.0 °F - 62.6 °F 83% 29.85 in 10.0 mi SSE 15.0 mph - N/A   Scattered Clouds
1:35 AM 68.0 °F - 62.6 °F 83% 29.83 in 10.0 mi SSE 15.0 mph - N/A   Clear
1:55 AM 68.0 °F - 62.6 °F 83% 29.83 in 10.0 mi SSE 17.3 mph 20.7 mph N/A   Scattered Clouds
2:15 AM 68.0 °F - 62.6 °F 83% 29.82 in 10.0 mi SSE 18.4 mph 23.0 mph N/A   Mostly Cloudy
2:35 AM 69.8 °F - 62.6 °F 78% 29.80 in 10.0 mi SSE 19.6 mph 26.5 mph N/A   Overcast
2:55 AM 69.8 °F - 62.6 °F 78% 29.80 in 10.0 mi SSE 24.2 mph - N/A   Overcast
3:15 AM 69.8 °F - 62.6 °F 78% 29.79 in 10.0 mi SSE 20.7 mph 24.2 mph N/A   Overcast
3:35 AM 69.8 °F - 62.6 °F 78% 29.79 in 10.0 mi SSE 20.7 mph 25.3 mph N/A   Overcast
3:55 AM 69.8 °F - 62.6 °F 78% 29.78 in 10.0 mi SSE 20.7 mph 25.3 mph N/A   Overcast
4:15 AM 69.8 °F - 62.6 °F 78% 29.78 in 10.0 mi SSE 20.7 mph 24.2 mph N/A   Overcast
4:35 AM 69.8 °F - 62.6 °F 78% 29.77 in 10.0 mi SSE 21.9 mph 27.6 mph N/A   Overcast
5:15 AM 69.8 °F - 62.6 °F 78% 29.75 in 10.0 mi SSE 24.2 mph 31.1 mph N/A   Overcast
5:35 AM 69.8 °F - 62.6 °F 78% 29.75 in 10.0 mi SSE 21.9 mph 32.2 mph N/A   Overcast
5:55 AM 69.8 °F - 62.6 °F 78% 29.74 in 10.0 mi SSE 24.2 mph 28.8 mph N/A   Mostly Cloudy
6:15 AM 69.8 °F - 62.6 °F 78% 29.74 in 10.0 mi SSE 25.3 mph 33.4 mph N/A   Overcast
6:35 AM 69.8 °F - 62.6 °F 78% 29.74 in 10.0 mi SSE 21.9 mph 33.4 mph N/A   Overcast
6:55 AM 69.8 °F - 62.6 °F 78% 29.73 in 10.0 mi South 27.6 mph - N/A   Mostly Cloudy
7:15 AM 69.8 °F - 62.6 °F 78% 29.72 in 10.0 mi SSE 26.5 mph 31.1 mph N/A   Overcast
7:35 AM 69.8 °F - 62.6 °F 78% 29.71 in 10.0 mi SSE 25.3 mph 33.4 mph N/A   Mostly Cloudy
7:55 AM 69.8 °F - 62.6 °F 78% 29.71 in 10.0 mi SSE 26.5 mph 33.4 mph N/A   Mostly Cloudy
8:15 AM 69.8 °F - 62.6 °F 78% 29.70 in 10.0 mi SSE 26.5 mph 34.5 mph N/A   Mostly Cloudy
8:35 AM 69.8 °F - 62.6 °F 78% 29.70 in 10.0 mi SSE 27.6 mph 35.7 mph N/A   Mostly Cloudy
8:55 AM 69.8 °F - 62.6 °F 78% 29.68 in 10.0 mi SSE 26.5 mph 38.0 mph N/A   Scattered Clouds
9:15 AM 69.8 °F - 62.6 °F 78% 29.69 in 10.0 mi SSE 28.8 mph 36.8 mph N/A   Scattered Clouds
9:35 AM 71.6 °F - 62.6 °F 73% 29.68 in 10.0 mi SSE 28.8 mph 36.8 mph N/A   Mostly Cloudy
9:55 AM 69.8 °F - 62.6 °F 78% 29.69 in 10.0 mi South 25.3 mph 34.5 mph N/A   Overcast
10:15 AM 71.6 °F - 62.6 °F 73% 29.70 in 10.0 mi South 24.2 mph 27.6 mph N/A   Overcast
10:35 AM 69.8 °F - 62.6 °F 78% 29.68 in 7.0 mi South 20.7 mph 31.1 mph N/A Rain Rain
10:55 AM 69.8 °F - 62.6 °F 78% 29.68 in 10.0 mi South 24.2 mph 28.8 mph N/A   Mostly Cloudy
11:15 AM 71.6 °F - 64.4 °F 78% 29.65 in 10.0 mi South 25.3 mph 33.4 mph N/A   Mostly Cloudy
11:35 AM 73.4 °F - 62.6 °F 69% 29.63 in 10.0 mi South 29.9 mph 38.0 mph N/A   Scattered Clouds
11:55 AM 73.4 °F - 62.6 °F 69% 29.62 in 10.0 mi South 29.9 mph 40.3 mph N/A   Scattered Clouds
12:15 PM 73.4 °F - 62.6 °F 69% 29.60 in 10.0 mi South 28.8 mph 38.0 mph N/A   Scattered Clouds
12:35 PM 73.4 °F - 62.6 °F 69% 29.59 in 10.0 mi South 28.8 mph 40.3 mph N/A   Mostly Cloudy
12:55 PM 75.2 °F - 62.6 °F 65% 29.57 in 10.0 mi South 31.1 mph 36.8 mph N/A   Mostly Cloudy
1:15 PM 77.0 °F - 62.6 °F 61% 29.54 in 10.0 mi South 28.8 mph 39.1 mph N/A   Scattered Clouds
1:35 PM 78.8 °F - 62.6 °F 57% 29.53 in 10.0 mi South 34.5 mph 42.6 mph N/A   Scattered Clouds
1:55 PM 77.0 °F - 60.8 °F 57% 29.51 in 10.0 mi South 28.8 mph 36.8 mph N/A   Scattered Clouds
2:15 PM 77.0 °F - 60.8 °F 57% 29.51 in 10.0 mi South 26.5 mph 34.5 mph N/A   Scattered Clouds
2:35 PM 77.0 °F - 60.8 °F 57% 29.49 in 10.0 mi South 24.2 mph 38.0 mph N/A   Scattered Clouds
2:55 PM 80.6 °F 81.5 °F 60.8 °F 51% 29.49 in 10.0 mi South 31.1 mph 38.0 mph N/A   Scattered Clouds
3:15 PM 78.8 °F - 60.8 °F 54% 29.48 in 10.0 mi South 29.9 mph 40.3 mph N/A   Clear
3:35 PM 78.8 °F - 59.0 °F 51% 29.49 in 10.0 mi South 32.2 mph 36.8 mph N/A   Clear
3:55 PM 77.0 °F - 59.0 °F 54% 29.48 in 10.0 mi South 23.0 mph 32.2 mph N/A   Scattered Clouds
4:15 PM 66.2 °F - 46.4 °F 49% 29.56 in 10.0 mi West 23.0 mph - N/A   Mostly Cloudy
4:35 PM 59.0 °F - 50.0 °F 72% 29.59 in 7.0 mi West 12.7 mph 26.5 mph 0.04 in Rain , Thunderstorm Rain
4:55 PM 59.0 °F - 51.8 °F 77% 29.58 in 10.0 mi NW 13.8 mph - 0.05 in   Overcast
5:15 PM 59.0 °F - 51.8 °F 77% 29.57 in 10.0 mi NW 15.0 mph 19.6 mph N/A   Mostly Cloudy
5:35 PM 59.0 °F - 51.8 °F 77% 29.61 in 10.0 mi West 17.3 mph 24.2 mph N/A   Mostly Cloudy
5:55 PM 59.0 °F - 50.0 °F 72% 29.60 in 10.0 mi WNW 25.3 mph 32.2 mph N/A   Light Drizzle
6:15 PM 59.0 °F - 48.2 °F 67% 29.62 in 10.0 mi WNW 12.7 mph - N/A Thunderstorm Drizzle
6:35 PM 57.2 °F - 46.4 °F 67% 29.59 in 10.0 mi NW 26.5 mph - 0.01 in Rain Light Rain
6:55 PM 55.4 °F - 44.6 °F 67% 29.59 in 10.0 mi NW 13.8 mph 23.0 mph 0.01 in   Scattered Clouds
7:15 PM 55.4 °F - 42.8 °F 63% 29.62 in 10.0 mi NW 9.2 mph - N/A   Mostly Cloudy
7:35 PM 55.4 °F - 44.6 °F 67% 29.65 in 10.0 mi East 4.6 mph - N/A   Overcast
7:55 PM 55.4 °F - 44.6 °F 67% 29.65 in 10.0 mi Calm Calm - N/A   Mostly Cloudy
8:15 PM 55.4 °F - 44.6 °F 67% 29.67 in 10.0 mi South 4.6 mph - N/A   Mostly Cloudy
8:35 PM 57.2 °F - 41.0 °F 55% 29.72 in 10.0 mi SW 9.2 mph - N/A Rain Light Rain
8:55 PM 55.4 °F - 42.8 °F 63% 29.71 in 10.0 mi South 5.8 mph - N/A   Scattered Clouds
9:15 PM 55.4 °F - 42.8 °F 63% 29.71 in 10.0 mi SW 8.1 mph - N/A   Mostly Cloudy
9:35 PM 55.4 °F - 39.2 °F 54% 29.71 in 10.0 mi WSW 9.2 mph - N/A   Scattered Clouds
9:55 PM 55.4 °F - 37.4 °F 51% 29.72 in 10.0 mi WSW 9.2 mph - N/A   Clear
10:15 PM 53.6 °F - 35.6 °F 51% 29.73 in 10.0 mi WSW 6.9 mph - N/A   Clear
10:35 PM 53.6 °F - 33.8 °F 47% 29.73 in 10.0 mi WSW 9.2 mph 16.1 mph N/A   Clear
10:55 PM 53.6 °F - 32.0 °F 44% 29.74 in 10.0 mi West 11.5 mph 17.3 mph N/A   Clear
11:15 PM 53.6 °F - 32.0 °F 44% 29.76 in 10.0 mi West 16.1 mph 21.9 mph N/A   Clear
11:35 PM 51.8 °F - 32.0 °F 47% 29.77 in 10.0 mi WSW 8.1 mph - N/A   Clear
11:55 PM 51.8 °F - 30.2 °F 44% 29.76 in 10.0 mi West 9.2 mph - N/A   Clear